This is the latest recevied weather packets stored in our database for station/object KB2AHZ. If no packets are shown the sender has not sent any weather packets the latest 10 day(s).
| Time | Temp. | Humidity | Pressure | Rain* | Wind** | Luminosity | Snow |
|---|---|---|---|---|---|---|---|
| 1777868694 | 7.78° C | 73% | 1017.3 hPa | 0 mm | - | 0 W/m² | - |
| 1777868391 | 7.78° C | 72% | 1017.5 hPa | 0 mm | - | 0 W/m² | - |
| 1777868088 | 8.33° C | 72% | 1017.6 hPa | 0 mm | - | 0 W/m² | - |
| 1777867783 | 8.33° C | 71% | 1017.4 hPa | 0 mm | - | 0 W/m² | - |
| 1777867482 | 8.33° C | 71% | 1017.4 hPa | 0 mm | - | 0 W/m² | - |
| 1777867177 | 8.33° C | 71% | 1017.6 hPa | 0 mm | - | 0 W/m² | - |
| 1777866875 | 8.33° C | 70% | 1017.7 hPa | 0 mm | - | 0 W/m² | - |
| 1777866571 | 8.89° C | 68% | 1017.7 hPa | 0 mm | - | 0 W/m² | - |
| 1777866269 | 8.89° C | 70% | 1017.5 hPa | 0 mm | - | 0 W/m² | - |
| 1777865966 | 8.89° C | 68% | 1017.7 hPa | 0 mm | - | 0 W/m² | - |
| 1777865664 | 8.89° C | 67% | 1017.6 hPa | 0 mm | - | 0 W/m² | - |
| 1777865360 | 8.89° C | 67% | 1017.7 hPa | 0 mm | - | 0 W/m² | - |
| 1777865057 | 8.89° C | 66% | 1017.6 hPa | 0 mm | - | 0 W/m² | - |
| 1777864754 | 8.89° C | 67% | 1017.5 hPa | 0 mm | - | 0 W/m² | - |
| 1777864451 | 9.44° C | 69% | 1017.6 hPa | 0 mm | - | 0 W/m² | - |
| 1777864148 | 9.44° C | 65% | 1017.4 hPa | 0 mm | - | 0 W/m² | - |
| 1777863845 | 8.89° C | 66% | 1017.5 hPa | 0 mm | - | 0 W/m² | - |
| 1777863540 | 9.44° C | 66% | 1017.6 hPa | 0 mm | - | 0 W/m² | - |
| 1777863238 | 9.44° C | 66% | 1017.3 hPa | 0 mm | - | 0 W/m² | - |
| 1777862935 | 9.44° C | 66% | 1017.4 hPa | 0 mm | - | 0 W/m² | - |
| 1777862631 | 9.44° C | 65% | 1017.7 hPa | 0 mm | - | 0 W/m² | - |
| 1777862328 | 10° C | 62% | 1017.4 hPa | 0 mm | - | 0 W/m² | - |
| 1777862025 | 10° C | 62% | 1017.4 hPa | 0 mm | - | 0 W/m² | - |
| 1777861720 | 10° C | 62% | 1017.5 hPa | 0 mm | - | 0 W/m² | - |
| 1777861417 | 10° C | 68% | 1017.4 hPa | 0 mm | - | 0 W/m² | - |
* Rain latest hour (hover to see other rain measurements)
** Current wind speed in m/s (hover to see current wind gust speed)